This demonstration page uses our WeatherBlox Daily Observations layout. Learn more.

39.92423, -83.80882

Hourly Observations for December 18, 2017

Temp ( °F °C ) Dew Point ( °F °C ) Humidity (%) Winds ( mph kmh ) Pressure ( in mb ) Visibility ( mi km ) Precip ( " mm )
12:56 am 00:56 Cloudy 39 3.9 34 1.1 82 82 SSW 7 11 30.09 1019 10 16.0934 0 0
1:56 am 01:56 Cloudy 38 3.3 34 1.1 86 86 SSW 7 11 30.09 1019 10 16.0934 0 0
2:56 am 02:56 Cloudy 38 3.3 35 1.7 89 89 SW 6 9 30.1 1019 10 16.0934 0 0
3:56 am 03:56 Cloudy 39 3.9 36 2.2 89 89 SSW 6 9 30.08 1019 9 14.48406 0 0
4:56 am 04:56 Cloudy 39 3.9 37 2.8 93 93 SW 8 13 30.08 1019 7 11.26538 0 0
5:56 am 05:56 Cloudy with Mist and Fog 39 3.9 37 2.8 93 93 SSW 8 13 30.08 1019 6 9.65604 0 0
6:56 am 06:56 Cloudy with Mist and Fog 39 3.9 38 3.3 96 96 SSW 8 13 30.07 1018 5 8.0467 0 0
7:06 am 07:06 Cloudy with Mist and Fog 39 4 37 3 93 93 SSW 8 13 30.09 1019 5 8.0467 0 0
7:47 am 07:47 Cloudy with Mist and Fog 39 4 37 3 93 93 SSW 9 15 30.09 1019 2 3.21868 0 0
7:56 am 07:56 Cloudy with Mist and Fog 39 3.9 38 3.3 96 96 SW 9 15 30.08 1019 1.5 2.41401 0 0
8:56 am 08:56 Cloudy with Light Rain 40 4.4 39 3.9 97 97 SW 10 17 30.08 1019 1.25 2.011675 0 0.0254
9:30 am 09:30 Cloudy with Light Rain 39 4 39 4 100 100 SW 10 17 30.09 1019 2.5 4.02335 0 0.0254
9:56 am 09:56 Cloudy with Light Rain 41 5 40 4.4 96 96 SW 9 15 30.08 1019 3 4.82802 0 0.0254
10:29 am 10:29 Cloudy with Light Rain 43 6 41 5 93 93 SW 10 17 30.09 1019 2 3.21868 0 0.0254
10:39 am 10:39 Cloudy with Light Rain 43 6 41 5 93 93 SW 10 17 30.09 1019 3 4.82802 0 0.0254
10:49 am 10:49 Cloudy with Mist and Fog 43 6 41 5 93 93 SW 12 19 30.09 1019 6 9.65604 0 0.0254
10:56 am 10:56 Cloudy 42 5.6 41 5 96 96 SW 15 24 30.08 1019 7 11.26538 0 0.0254
11:56 am 11:56 Cloudy 43 6.1 41 5 93 93 WSW 14 22 30.06 1018 9 14.48406 0 0
12:27 pm 12:27 Cloudy 45 7 41 5 87 87 WSW 15 24 30.06 1018 10 16.0934 0 0
12:56 pm 12:56 Cloudy 44 6.7 41 5 89 89 WSW 16 26 30.03 1017 10 16.0934 0 0
1:56 pm 13:56 Cloudy 45 7.2 41 5 86 86 WSW 17 28 30.02 1017 10 16.0934 0 0
2:46 pm 14:46 Cloudy 45 7 41 5 87 87 WSW 15 24 30.03 1017 10 16.0934 0 0
2:56 pm 14:56 Cloudy 45 7.2 41 5 86 86 WSW 14 22 30.02 1017 10 16.0934 0 0
3:56 pm 15:56 Cloudy 45 7.2 41 5 86 86 WSW 12 19 30.01 1016 10 16.0934 0 0
4:56 pm 16:56 Cloudy with Light Rain 44 6.7 42 5.6 93 93 SW 9 15 30.02 1017 5 8.0467 0 0.0254
5:08 pm 17:08 Cloudy with Light Rain 45 7 43 6 93 93 WSW 8 13 30.03 1017 5 8.0467 0 0.0254
5:56 pm 17:56 Cloudy with Light Rain 43 6.1 42 5.6 97 97 SW 7 11 30.03 1017 4 6.43736 0 0.0254
6:56 pm 18:56 Cloudy with Light Rain 43 6.1 43 6.1 100 100 SW 12 19 30.04 1017 5 8.0467 0 0.0254
7:11 pm 19:11 Cloudy with Light Rain 45 7 43 6 93 93 WSW 10 17 30.06 1018 6 9.65604 0 0.0254
7:25 pm 19:25 Cloudy with Light Rain 45 7 43 6 93 93 SW 12 19 30.06 1018 4 6.43736 0 0.0254
7:56 pm 19:56 Cloudy 44 6.7 42 5.6 93 93 WSW 14 22 30.04 1017 8 12.87472 0.01 0.254
8:17 pm 20:17 Cloudy 45 7 43 6 93 93 WSW 14 22 30.03 1017 10 16.0934 0 0
8:56 pm 20:56 Cloudy 44 6.7 41 5 89 89 WSW 14 22 30.04 1017 10 16.0934 0 0
9:56 pm 21:56 Cloudy 44 6.7 41 5 89 89 SW 14 22 30.03 1017 10 16.0934 0 0
10:56 pm 22:56 Cloudy 44 6.7 41 5 89 89 WSW 16 26 30.02 1017 10 16.0934 0 0
11:14 pm 23:14 Cloudy 45 7 39 4 81 81 SW 15 24 30.03 1017 10 16.0934 0 0
11:28 pm 23:28 Cloudy 45 7 41 5 87 87 SW 13 20 30.03 1017 10 16.0934 0 0
11:35 pm 23:35 Cloudy 45 7 41 5 87 87 SW 15 24 30.03 1017 10 16.0934 0 0
11:56 pm 23:56 Cloudy 44 6.7 41 5 89 89 SW 15 24 30.03 1017 10 16.0934 0 0

Powered by AerisWeather